Regional Weather Roundup
Issued by NWS Bismarck, ND

Home | Current Version | Previous Version | Text Only | Print | Product List | Glossary On
Versions: 1 2 3 4 5 6 7 8 9 10 11 12 13 14 15 16 17 18 19 20 21 22 23 24 25 26 27 28 29 30 31 32 33 34 35 36 37 38 39 40 41 42 43 44 45 46 47 48 49 50
000
ASUS43 KBIS 300210
RWRBIS

NWR BROADCAST TEXT
NATIONAL WEATHER SERVICE BISMARCK ND
900 PM CDT SAT AUG 29 2015

NOTE: "FAIR" INDICATES FEW OR NO CLOUDS BELOW 12,000 FEET WITH NO
SIGNIFICANT WEATHER AND/OR OBSTRUCTIONS TO VISIBILITY.


CITY           SKY/WX    TMP DP  RH WIND       PRES   REMARKS
WILLISTON      CLOUDY    82  53  36 NE8       29.75F HAZE
MINOT          MOCLDY    75  58  55 NE3       29.77S HAZE
MINOT AFB      MOCLDY    73  59  60 S6        29.76S
BISMARCK       MOCLDY    76  62  62 SE8       29.82S
DICKINSON      MOCLDY    76  47  35 S6        29.82S
GARRISON         N/A     76  61  59 S7        29.79S
HETTINGER ARPT PTCLDY    79  54  41 SE8       29.87F
JAMESTOWN      PTCLDY    75  69  81 S10       29.86R
CROSBY         FAIR      72  55  56 E3        29.79S HAZE
HARVEY         FAIR      73  59  60 SE9       29.81S HAZE
HAZEN          FAIR      81  57  44 S17       29.80S
LINTON         FAIR      75  68  78 SE13      29.85F
OAKES            N/A     70  70 100 SE8       29.89S
RUGBY          FAIR      75  63  64 S9        29.79S HAZE
STANLEY        FAIR      77  61  57 E3        29.81S
$$

CITY           SKY/WX    TMP DP  RH WIND       PRES   REMARKS
GRAND FORKS    PTCLDY    73  68  84 S9        29.82S
GRAND FORKS AF PTCLDY    71  68  88 S9        29.82F
DEVILS LAKE    PTCLDY    73  64  73 S10       29.81S
FARGO          MOCLDY    75  66  73 S15       29.87R
CAVALIER       FAIR      73  70  88 S5        29.79R
GRAFTON        FAIR      72  72 100 S12       29.80S
GWINNER          N/A     72  72 100 S6        29.90R
LANGDON        FAIR      73  70  88 S8        29.82R
ROLLA          FAIR      68  59  73 S8        29.82R
WALHALLA       FAIR      72  72 100 MISG      29.79S
$$

CITY           SKY/WX    TMP DP  RH WIND       PRES   REMARKS
ABERDEEN       CLEAR     74  70  87 S13       29.89S
MOBRIDGE       CLEAR     76  69  79 SE9       29.84S
BUFFALO          N/A     80  53  39 SE14      29.81F
RAPID CITY     CLEAR     75  51  43 SE6       29.92S
GLASGOW        HAZE      80  43  26 E12       29.70F VSB 1
SIDNEY         CLOUDY    82  55  39 CALM      29.75S
WOLF POINT     CLOUDY    81  48  31 E5        29.72F HAZE
GLENDIVE       CLOUDY    84  46  26 E5        29.78S
MILES CITY     MOCLDY    88  42  20 SE6       29.75F
BAKER          MOCLDY    81  50  33 S14       29.85R
$$

CITY           SKY/WX    TMP DP  RH WIND       PRES   REMARKS
BILLINGS       CLOUDY    83  42  23 SW5       29.82F
GREAT FALLS    MOCLDY    73  55  53 S15       29.74S
REGINA         CLOUDY    73  55  53 E8        29.74F SMOKE
ESTEVAN        SMOKE     73  54  49 E7        29.78S VSB 3/4
$$



USA.gov is the U.S. government's official web portal to all federal, state and local government web resources and services.